INSAT-3D

Last updated on Thu Jul 03 2025 00:02:22 GMT+0000 (Coordinated Universal Time)

1 39216U 13038B 25183.59212359 -.00000332 00000+0 00000+0 0 9998 2 39216 1.0220 87.3359 0000615 28.9790 147.2466 1.00274996 43577
UTC large
Height (km)
Speed (km/s)
/
Latitude / Longitude
Inclination (degrees)
Orbital Period (minutes)
Azimuth
Elevation
Range (km)
Doppler Factor

Next 0 passes for location: London (51.5072 / 0.1276)

Sorry there are no passes over London.